User: anonymous   Login
Location: Fort Wayne
(41.1310°N, 85.1290°W)
Time: 14:56:31
(UTC-04:00)
Language:

Tiros 1 despin weight - Orbit

View from above orbital plane
View from above orbital plane
View from above satellite
View from above satellite

Ground track
Ground track

The orbit data is extracted from the following two-line orbital elements,

1 00115U 60002D   16270.41867925  .00000274  00000-0  60490-4 0  9999
2 00115  48.1675 331.1241 0034450  16.3006 343.9006 14.82883894 11076
Epoch (UTC): 26 September 2016 10:02:53
Eccentricity: 0.0034450
inclination: 48.1675°
perigee height: 596 km
apogee height: 644 km
right ascension of ascending node: 331.1241°
argument of perigee: 16.3006°
revolutions per day: 14.82883894
mean anomaly at epoch: 343.9006°
orbit number at epoch: 1107

The dashed part of the orbit path shows where the satellite is in the earth's shadow,  

DLR